Welcome to the New NWS' Forecast!
Most changes are behind the scenes, but click here for differences you might notice.
Latest weather observations around

Seattle, Seattle Boeing Field (KBFI)

Using English Units (Switch to International System of Units)
Date/ Time (PDT) Wind (mph) Vis. (mi) Weather Sky Cond. Temp (°F) Rel. Humidity Wind Chill (°F) Heat Index (°F) Pressure Precip. (in)
Air Dwpt 6 hour Altimeter (inHg) Sea level (inHg) 1 hr 3 hr 6 hr
Max Min
Aug 14 00:53 Calm 7 Smoke CLR 67 56     68%     29.97 29.97      
Aug 13 23:53 Calm 7 Smoke CLR 68 57     68%     29.97 29.96      
Aug 13 22:53 Calm 7 Smoke CLR 69 57     65%     29.97 29.97      
Aug 13 20:53 N 6 8 Smoke CLR 71 58     63%   71 29.97 29.97      
Aug 13 19:53 NW 5 7 Smoke CLR 71 58     63%   71 29.96 29.96      
Aug 13 17:53 NW 9 7 Smoke CLR 74 58     57%   74 29.97 29.97      
Aug 13 16:53 WNW 7 7 Smoke CLR 74 58     57%   74 29.99 29.99      
Aug 13 15:53 WNW 9 8 Smoke CLR 75 58     55%   75 30 30      
Aug 13 14:53 NW 10 8 Clear CLR 73 57     57%   73 30.03 30.03      
Aug 13 13:53 NW 11 9 Clear CLR 73 57     57%   73 30.04 30.04      
Aug 13 11:53 6 10 Partly Cloudy SCT019 72 57     59%   72 30.07 30.07      
Aug 13 10:53 3 10 Partly Cloudy SCT019 70 57     63%     30.08 30.08      
Aug 13 09:53 ENE 8 10 Partly Cloudy SCT050 67 57     71%     30.09 30.09      
Aug 13 08:53 Calm 10 Partly Cloudy SCT050 65 56     73%     30.11 30.11      
Aug 13 07:53 Calm 10 Clear CLR 62 55     78%     30.11 30.11      
Aug 13 06:53 Calm 10 Clear CLR 59 54     83%     30.11 30.1      
Aug 13 04:53 Calm 10 Clear CLR 60 54     80%     30.1 30.1      
Aug 13 03:53 Calm 10 Clear CLR 60 53     78%     30.11 30.11      
Aug 12 22:53 3 10 Clear CLR 63 53     70%     30.12 30.12      
Aug 12 20:53 NW 7 10 Clear CLR 64 52     65%     30.12 30.11      
Aug 12 19:53 5 10 Mostly Clear FEW040 66 52     61%     30.11 30.11      
Aug 12 14:53 NNW 8 10 Mostly Cloudy SCT020 BKN060 72 52     49%   71 30.14 30.14      
Aug 12 13:53 NW 8 10 Mostly Cloudy SCT020 BKN060 71 53     53%   70 30.16 30.15      
Aug 12 11:53 Calm 10 Cloudy FEW010 SCT025 OVC050 68 54     61%     30.18 30.18      
Aug 12 10:53 Calm 10 Cloudy FEW010 BKN020 OVC100 66 55     68%     30.18 30.18      
Aug 12 02:53 S 3 10 Partly Cloudy SCT049 62 56     80%     30.12 30.12      
Aug 12 01:53 SSW 7 10 Partly Cloudy SCT045 63 56     78%     30.11 30.11      
Aug 12 00:53 S 8 10 Mostly Clear FEW046 62 56     80%     30.11 30.11      
Aug 11 23:53 S 7 10 Mostly Clear FEW060 63 56     78%     30.1 30.09      
Aug 11 22:53 S 6 10 Partly Cloudy SCT060 64 56     75%     30.1 30.1     0
Aug 11 20:53 6 10 Mostly Cloudy BKN100 67 56     68%     30.08 30.07      
Aug 11 16:53 SW 8 10 Mostly Cloudy SCT035 BKN050 70 57     63%     30.03 30.03 0   0
Aug 11 14:53 SSW 9 10 Mostly Cloudy FEW012 SCT027 BKN040 74 57     56%   74 30.06 30.05 0    
Aug 11 13:53 SSW 9 10 Light Rain FEW011 SCT020 BKN050 70 59     68%     30.06 30.06 0 0  
Aug 11 10:53 WSW 11 10 Mostly Cloudy BKN020 70 55     59%     30.04 30.04      
Aug 11 07:53 SSW 8 10 Mostly Cloudy BKN026 BKN030 65 56     73%     30.04 30.04      
Aug 11 03:53 S 9 10 Mostly Cloudy BKN024 BKN037 65 55     70%     30.02 30.01      
Aug 11 03:49 S 13 10 Mostly Cloudy BKN024 BKN037 64 55     73%     30.02        
Aug 11 00:53 SSE 11 10 Partly Cloudy SCT019 63 56     78%     30.01 30.01      
May 15 05:53 SSW 6 10 Cloudy OVC008 55 51     86%     29.92 29.92      
May 14 14:53 NNW 8 10 Clear CLR 83 51     33%   81 29.88 29.88      
May 13 17:53 NW 7 10 Clear CLR 81 47     30%   80 29.87 29.87      
May 13 11:53 Calm 10 Clear CLR 71 54     55%   70 29.95 29.94      
May 13 10:53 6 10 Clear CLR 69 53     57%     29.95 29.95      
May 13 08:53 ENE 3 10 Clear CLR 64 51     63%     29.98 29.97      
May 12 01:53 SE 6 10 Clear CLR 53 47     80%     30.19 30.19      
May 12 00:53 Calm 10 Clear CLR 57 46     67%     30.19 30.19      
May 11 17:53 3 10 Partly Cloudy SCT046 67 46     47%     30.2 30.2      
Jun 12 03:53 SSE 8 10 Mostly Cloudy BKN060 53 51     93%     30 30      
Jun 12 02:53 SSE 7 10 Mostly Cloudy BKN055 54 51     90%     30 29.99      
Jun 11 22:53 Calm 10 Clear CLR 61 49     64%     29.99 29.99      
Jun 11 14:53 NW 8 10 Clear   69 48     47%     30 29.99      
Jun 11 01:53 Calm 10 Mostly Cloudy BKN085 57 47     69%     29.97 29.97      
Jun 10 23:53 Calm 10 Cloudy OVC075 59 47     64%     29.95 29.95      
Jun 10 15:53 NNW 7 10 Clear   65 44     47%     29.85 29.85      
Jun 08 08:44 SSE 8 10 Light Rain SCT007 BKN038 OVC095 57 57     100%     29.66   0    
Jun 07 14:53 6 10 Cloudy SCT140 OVC250 79 54     42%   79 29.69 29.69      
Jun 06 00:53 3 10 Clear CLR 60 46     60%     30.04 30.04      
Jun 05 20:53 NW 6 10 Clear CLR 65 46     50%     30.05 30.05      
Jun 05 19:53 NW 6 10 Mostly Cloudy BKN200 67 47     49%     30.05 30.05      
Jun 05 15:53 WNW 9 10 Mostly Cloudy BKN250 71 45     39%   70 30.08 30.07